sat.trackr.live / text

‹ back to catalog

STARLINK-34932

NORAD 65179 · 2025-175F

PAYLOAD ACTIVE UNKNOWN

§ Identity

Operator
Country
US
Launch date
2025-08-14
Launch site
AFWTR
Launch vehicle
Mass (kg)
RCS (m²)

Purposes: comms

External: N2YO · Heavens-Above · Gunter

§ Orbital elements

Epoch: 2026-05-25T05:17:37.989312Z

Period
95.64 min
Inclination
97.4481°
Eccentricity
0.0001600
Mean motion
15.05642329 rev/d
Perigee alt
548.4 km
Apogee alt
550.6 km
Semi-major
6,927.7 km
B*
9.6957e-4
RAAN
17.6744°
Arg perigee
101.4644°
Mean anomaly
258.6763°
Rev number
4,415

§ Raw data

STARLINK-349321 65179U 25175F   26145.22057858  .00013956  00000+0  96957-3 0  99952 65179  97.4481  17.6744 0001600 101.4644 258.6763 15.05642329 44157

JSON: /api/v1/satellites/65179 · /tle

For live sub-satellite position, see the globe view (requires WebGL).

§ Visibility from observer

Set your observer location to see the next 7 days of passes ≥ 10°. The values pass through the URL so the page stays shareable.

No JS? Fill the form by hand. The geolocation button needs JavaScript.